METAR Formatted Surface Weather Observation
Issued by NWS

Home | Current Version | Previous Version | Text Only | Print | Product List | Glossary On
Versions: 1 2 3 4 5 6 7 8 9 10 11 12 13 14 15 16 17 18 19 20 21 22 23 24 25 26 27 28 29 30 31 32 33 34 35 36 37 38
482
SAUS46 KLOX 061104
MTRNZY
METAR KNZY 061052Z 13008KT 8SM SCT023 BKN033 BKN250 14/11 A2996 RMK
AO2 SLP144 T01390111 $



USA.gov is the U.S. government's official web portal to all federal, state and local government web resources and services.